Moorhead, MN

11:39 PM CDT on March 27, 2017 (GMT -0500)
Moorhead Municipal

Weather History for KJKJ - October, 2013

Change the Weather History Date:

Tuesday, October 22, 2013

  Actual Average (KFAR) Record (KFAR)
Temperature  
Mean Temperature 34 °F -  
Max Temperature 39 °F 54 °F 82 °F (1901)
Min Temperature 30 °F 34 °F 10 °F (1936)
Degree Days  
Heating Degree Days 30    
Moisture  
Dew Point 30 °F    
Average Humidity 83    
Maximum Humidity 100    
Minimum Humidity 49    
Precipitation  
Precipitation 0.00 in - - ()
Sea Level Pressure  
Sea Level Pressure 30.05 in    
Wind  
Wind Speed 6 mph (NNW)    
Max Wind Speed 14 mph    
Max Gust Speed 22 mph    
Visibility 10 miles    
Events      
Averages and records for this station are not official NWS values.
T = Trace of Precipitation, MM = Missing Value Source: NWS Daily Summary

Daily Weather History Graph

Daily Weather History Graph

Search for Another Location

Airport or City:

Trip Planner

Search our weather history database for the weather conditions in past years. The results will help you decide how hot, cold, wet, or windy it might be!

Date:

Astronomy

Oct. 22, 2013 Rise Set
Actual Time 7:54 AM CDT 6:26 PM CDT
Civil Twilight 7:23 AM CDT 6:57 PM CDT
Nautical Twilight 6:48 AM CDT 7:32 PM CDT
Astronomical Twilight 6:13 AM CDT 8:07 PM CDT
Moon 8:57 PM CDT (10/22) 11:34 AM CDT (10/22)
Length of Visible Light 11h 33m
Length of Day
10h 31m
Waning Gibbous, 86% of the Moon is Illuminated
Oct 22
Waning Gibbous
Oct 26
Last Quarter
Nov 3
New
Nov 9
First Quarter
Nov 17
Full

Hourly Weather History & Observations

Time (CDT) Temp. Windchill Dew Point Humidity Pressure Visibility Wind Dir Wind Speed Gust Speed Precip Events Conditions
12:15 AM 32.0 °F 27.5 °F 28.4 °F 87% 29.99 in 10.0 mi North 4.6 mph - N/A   Clear
12:34 AM 30.2 °F 25.4 °F 28.4 °F 93% 30.00 in 10.0 mi NNW 4.6 mph - N/A   Clear
12:54 AM 30.2 °F 25.4 °F 30.2 °F 100% 29.99 in 10.0 mi NW 4.6 mph - N/A   Clear
1:15 AM 30.2 °F 25.4 °F 30.2 °F 100% 30.00 in 10.0 mi NW 4.6 mph - N/A   Clear
1:34 AM 30.2 °F - 30.2 °F 100% 30.00 in 10.0 mi Calm Calm - N/A   Clear
1:54 AM 30.2 °F - 30.2 °F 100% 30.00 in 10.0 mi Calm Calm - N/A   Clear
2:15 AM 30.2 °F - 28.4 °F 93% 30.00 in 10.0 mi Calm Calm - N/A   Clear
2:34 AM 30.2 °F 26.7 °F 30.2 °F 100% 30.00 in 10.0 mi North 3.5 mph - N/A   Scattered Clouds
2:54 AM 30.2 °F 25.4 °F 30.2 °F 100% 30.00 in 10.0 mi North 4.6 mph - N/A   Scattered Clouds
3:15 AM 30.2 °F 25.4 °F 30.2 °F 100% 30.00 in 10.0 mi North 4.6 mph - N/A   Overcast
3:34 AM 32.0 °F 27.5 °F 30.2 °F 93% 30.00 in 10.0 mi North 4.6 mph - N/A   Overcast
3:55 AM 32.0 °F 26.4 °F 30.2 °F 93% 30.00 in 10.0 mi North 5.8 mph - N/A   Mostly Cloudy
4:15 AM 32.0 °F 27.5 °F 30.2 °F 93% 30.00 in 10.0 mi North 4.6 mph - N/A   Mostly Cloudy
4:34 AM 32.0 °F 27.5 °F 30.2 °F 93% 30.00 in 10.0 mi NNW 4.6 mph - N/A   Overcast
4:55 AM 32.0 °F 27.5 °F 30.2 °F 93% 30.01 in 10.0 mi NNW 4.6 mph - N/A   Overcast
5:15 AM 32.0 °F 27.5 °F 30.2 °F 93% 30.01 in 10.0 mi NNW 4.6 mph - N/A   Overcast
5:34 AM 33.8 °F 27.7 °F 32.0 °F 93% 30.01 in 10.0 mi NNW 6.9 mph - N/A   Overcast
5:55 AM 33.8 °F 27.7 °F 32.0 °F 93% 30.02 in 10.0 mi NNW 6.9 mph - N/A   Overcast
6:14 AM 33.8 °F 28.6 °F 32.0 °F 93% 30.02 in 10.0 mi NNW 5.8 mph - N/A   Overcast
6:34 AM 33.8 °F 29.6 °F 32.0 °F 93% 30.02 in 10.0 mi NNW 4.6 mph - N/A   Overcast
6:55 AM 33.8 °F 29.6 °F 32.0 °F 93% 30.02 in 10.0 mi North 4.6 mph - N/A   Overcast
7:14 AM 33.8 °F 29.6 °F 32.0 °F 93% 30.03 in 10.0 mi North 4.6 mph - N/A   Overcast
7:34 AM 33.8 °F 29.6 °F 32.0 °F 93% 30.03 in 10.0 mi North 4.6 mph - N/A   Overcast
7:55 AM 33.8 °F 28.6 °F 33.8 °F 100% 30.04 in 10.0 mi North 5.8 mph - N/A   Overcast
8:15 AM 33.8 °F 27.7 °F 32.0 °F 93% 30.04 in 10.0 mi North 6.9 mph - N/A   Overcast
8:34 AM 33.8 °F 27.7 °F 32.0 °F 93% 30.05 in 10.0 mi North 6.9 mph - N/A   Overcast
8:55 AM 33.8 °F 27.7 °F 32.0 °F 93% 30.06 in 10.0 mi North 6.9 mph - N/A   Overcast
9:15 AM 33.8 °F 28.6 °F 33.8 °F 100% 30.07 in 10.0 mi North 5.8 mph - N/A   Overcast
9:35 AM 33.8 °F 27.7 °F 32.0 °F 93% 30.07 in 10.0 mi NNW 6.9 mph - N/A   Overcast
9:54 AM 33.8 °F 27.0 °F 32.0 °F 93% 30.07 in 10.0 mi NNW 8.1 mph - N/A   Overcast
10:15 AM 35.6 °F 28.6 °F 33.8 °F 93% 30.07 in 10.0 mi NNW 9.2 mph - N/A   Overcast
10:35 AM 35.6 °F 27.5 °F 33.8 °F 93% 30.07 in 10.0 mi North 11.5 mph - N/A   Overcast
10:54 AM 35.6 °F 28.6 °F 33.8 °F 93% 30.07 in 10.0 mi North 9.2 mph - N/A   Overcast
11:15 AM 35.6 °F 28.0 °F 33.8 °F 93% 30.08 in 10.0 mi NNW 10.4 mph - N/A   Overcast
11:35 AM 37.4 °F 30.3 °F 33.8 °F 87% 30.07 in 10.0 mi North 10.4 mph - N/A   Overcast
11:54 AM 37.4 °F 30.8 °F 33.8 °F 87% 30.08 in 10.0 mi North 9.2 mph - N/A   Overcast
12:15 PM 37.4 °F 29.8 °F 32.0 °F 81% 30.08 in 10.0 mi North 11.5 mph - N/A   Overcast
12:35 PM 39.2 °F 33.0 °F 33.8 °F 81% 30.08 in 10.0 mi NNW 9.2 mph - N/A   Overcast
12:54 PM 39.2 °F 33.0 °F 32.0 °F 75% 30.08 in 10.0 mi North 9.2 mph - N/A   Overcast
1:15 PM 39.2 °F 32.5 °F 30.2 °F 70% 30.07 in 10.0 mi NNW 10.4 mph - N/A   Overcast
1:35 PM 39.2 °F 31.6 °F 30.2 °F 70% 30.07 in 10.0 mi North 12.7 mph 21.9 mph N/A   Overcast
1:54 PM 39.2 °F 31.2 °F 26.6 °F 61% 30.06 in 10.0 mi NNW 13.8 mph - N/A   Overcast
2:15 PM 39.2 °F 32.0 °F 24.8 °F 56% 30.06 in 10.0 mi NNW 11.5 mph - N/A   Mostly Cloudy
2:35 PM 39.2 °F 32.5 °F 21.2 °F 49% 30.06 in 10.0 mi NW 10.4 mph - N/A   Overcast
2:55 PM 39.2 °F 31.2 °F 24.8 °F 56% 30.06 in 10.0 mi NNW 13.8 mph - N/A   Overcast
3:15 PM 39.2 °F 32.5 °F 24.8 °F 56% 30.06 in 10.0 mi NW 10.4 mph - N/A   Overcast
3:34 PM 39.2 °F 32.5 °F 24.8 °F 56% 30.06 in 10.0 mi NNW 10.4 mph - N/A   Overcast
3:55 PM 39.2 °F 31.2 °F 24.8 °F 56% 30.06 in 10.0 mi NW 13.8 mph - N/A   Overcast
4:15 PM 39.2 °F 32.5 °F 26.6 °F 61% 30.06 in 10.0 mi NW 10.4 mph - N/A   Overcast
4:34 PM 39.2 °F 32.0 °F 26.6 °F 61% 30.06 in 10.0 mi NW 11.5 mph - N/A   Overcast
4:55 PM 39.2 °F 33.0 °F 26.6 °F 61% 30.06 in 10.0 mi NW 9.2 mph - N/A   Overcast
5:15 PM 39.2 °F 33.0 °F 26.6 °F 61% 30.06 in 10.0 mi NW 9.2 mph - N/A   Overcast
5:34 PM 39.2 °F 33.0 °F 26.6 °F 61% 30.06 in 10.0 mi NW 9.2 mph - N/A   Overcast
5:55 PM 39.2 °F 34.2 °F 28.4 °F 65% 30.06 in 10.0 mi NW 6.9 mph - N/A   Overcast
6:15 PM 37.4 °F 32.1 °F 28.4 °F 70% 30.06 in 10.0 mi NW 6.9 mph - N/A   Overcast
6:34 PM 37.4 °F 32.1 °F 30.2 °F 75% 30.06 in 10.0 mi WNW 6.9 mph - N/A   Overcast
6:55 PM 37.4 °F 32.1 °F 28.4 °F 70% 30.06 in 10.0 mi NW 6.9 mph - N/A   Overcast
7:15 PM 37.4 °F 32.8 °F 28.4 °F 70% 30.07 in 10.0 mi NW 5.8 mph - N/A   Overcast
7:34 PM 37.4 °F 34.9 °F 30.2 °F 75% 30.07 in 10.0 mi NNW 3.5 mph - N/A   Overcast
7:55 PM 35.6 °F 31.7 °F 30.2 °F 81% 30.07 in 10.0 mi NW 4.6 mph - N/A   Overcast
8:14 PM 37.4 °F 33.8 °F 30.2 °F 75% 30.07 in 10.0 mi NW 4.6 mph - N/A   Overcast
8:35 PM 35.6 °F 31.7 °F 30.2 °F 81% 30.07 in 10.0 mi NW 4.6 mph - N/A   Overcast
8:55 PM 35.6 °F 32.8 °F 32.0 °F 87% 30.07 in 10.0 mi NW 3.5 mph - N/A   Overcast
9:14 PM 35.6 °F - 32.0 °F 87% 30.07 in 10.0 mi Calm Calm - N/A   Overcast
9:35 PM 35.6 °F 32.8 °F 32.0 °F 87% 30.07 in 10.0 mi NW 3.5 mph - N/A   Overcast
9:55 PM 35.6 °F 32.8 °F 33.8 °F 93% 30.07 in 10.0 mi NW 3.5 mph - N/A   Overcast
10:15 PM 35.6 °F - 32.0 °F 87% 30.06 in 10.0 mi Calm Calm - N/A   Overcast
10:35 PM 35.6 °F 31.7 °F 32.0 °F 87% 30.07 in 10.0 mi WNW 4.6 mph - N/A   Overcast
10:54 PM 35.6 °F 29.9 °F 32.0 °F 87% 30.06 in 10.0 mi NW 6.9 mph - N/A   Overcast
11:15 PM 35.6 °F 29.2 °F 30.2 °F 81% 30.06 in 10.0 mi NNW 8.1 mph - N/A   Overcast
11:35 PM 35.6 °F 28.6 °F 30.2 °F 81% 30.06 in 10.0 mi NNW 9.2 mph - N/A   Overcast
11:54 PM 35.6 °F 29.9 °F 32.0 °F 87% 30.06 in 10.0 mi NNW 6.9 mph - N/A   Overcast